FW5285 Myrtle Beach SC US current weather conditions

sailwx.info

Wind from 130 at 0 knots gusting 7

Air temperature 13.3° C
Dewpoint 4.5° C

Last reported at 2019-Dec-05 21:00 UTC.
Time now 2019-Dec-05 21:49 UTC

Location: N 33°39' W 078°57'.
View on Google Maps.

See reports from other nearby stations

  
Tides and Currents Weather Stations Pressure Air Temp Water Temp Dewpoint Dewpoint Depression Visibility Wind Speed Wind Dir Waves Ship Positions
date/time (UTC)wind fromknots sea level pressurealtimeterstation pressurevisibilityair tempwater tempwave heightnotes
2019-Dec-05 21:00 130 0 gusting 7 13.3
2019-Dec-05 20:55 179 0 gusting 5 13.3
2019-Dec-05 20:50 231 0 gusting 5 13.9
2019-Dec-05 20:45 179 0 gusting 5 13.9
2019-Dec-05 20:40 169 0 gusting 5 13.9
2019-Dec-05 20:35 178 2 gusting 5 13.9
2019-Dec-05 20:30 174 0 gusting 7 13.9
2019-Dec-05 20:25 176 2 gusting 7 14.4
2019-Dec-05 20:19 165 2 gusting 5 14.4
2019-Dec-05 20:14 192 0 gusting 5 14.4
2019-Dec-05 20:09 169 0 gusting 5 14.4
2019-Dec-05 20:04 160 2 gusting 5 14.4
2019-Dec-05 19:59 164 2 gusting 5 14.4
2019-Dec-05 19:54 137 0 gusting 5 14.4
2019-Dec-05 19:49 153 0 gusting 5 15.0
2019-Dec-05 19:44 134 0 gusting 5 14.4
2019-Dec-05 19:39 126 2 gusting 7 14.4
2019-Dec-05 19:34 142 3 gusting 9 14.4
2019-Dec-05 19:29 182 2 gusting 9 14.4
2019-Dec-05 19:24 136 2 gusting 7 15.0
2019-Dec-05 19:19 153 0 gusting 6 14.4
2019-Dec-05 19:14 184 0 gusting 6 15.0
2019-Dec-05 19:09 181 0 gusting 6 15.6
2019-Dec-05 19:04 163 2 gusting 10 15.0
2019-Dec-05 18:59 139 3 gusting 10 15.0
2019-Dec-05 18:54 155 2 gusting 9 15.0
2019-Dec-05 18:49 163 0 gusting 5 15.0
2019-Dec-05 18:44 177 0 gusting 5 15.6
2019-Dec-05 18:39 185 0 gusting 5 15.6
2019-Dec-05 18:34 174 0 gusting 2 15.6
2019-Dec-05 18:29 174 0 gusting 3 15.6
2019-Dec-05 18:24 175 0 gusting 5 15.6
2019-Dec-05 18:19 190 2 gusting 5 15.6
2019-Dec-05 18:14 186 2 gusting 9 15.6
2019-Dec-05 18:09 160 2 gusting 9 15.6
2019-Dec-05 18:04 152 2 gusting 7 15.6
2019-Dec-05 17:59 190 0 gusting 6 15.6
2019-Dec-05 17:54 168 0 gusting 7 15.6
2019-Dec-05 17:49 145 2 gusting 10 15.6
2019-Dec-05 17:44 118 0 gusting 10 15.6
2019-Dec-05 17:39 173 0 gusting 5 15.6
2019-Dec-05 17:34 199 0 gusting 5 15.6
2019-Dec-05 17:29 207 0 gusting 3 16.7
2019-Dec-05 17:24 304 0 gusting 3 16.7
2019-Dec-05 17:19 324 0 gusting 3 16.7
2019-Dec-05 17:14 030 0 gusting 3 16.7
2019-Dec-05 17:09 335 0 gusting 5 16.7
2019-Dec-05 17:04 285 0 gusting 5 16.1
2019-Dec-05 16:59 288 2 gusting 7 16.1
2019-Dec-05 16:54 291 2 gusting 7 15.6
2019-Dec-05 16:49 172 3 gusting 10 15.6
2019-Dec-05 16:44 298 3 gusting 10 15.0
2019-Dec-05 16:39 289 2 gusting 9 15.6
2019-Dec-05 16:34 279 2 gusting 6 15.6
2019-Dec-05 16:29 282 2 gusting 9 15.6
2019-Dec-05 16:24 290 2 gusting 9 15.0
2019-Dec-05 16:19 290 2 gusting 9 15.6
2019-Dec-05 16:14 092 2 gusting 10 15.0
2019-Dec-05 16:09 076 2 gusting 10 15.0
2019-Dec-05 16:04 300 3 gusting 10 14.4
2019-Dec-05 15:59 325 3 gusting 13 14.4
2019-Dec-05 15:54 302 3 gusting 13 14.4
2019-Dec-05 15:49 272 2 gusting 9 14.4
2019-Dec-05 15:44 261 3 gusting 14 13.9
2019-Dec-05 15:39 321 3 gusting 14 13.9
2019-Dec-05 15:34 338 3 gusting 10 13.9
2019-Dec-05 15:29 080 2 gusting 9 13.9
2019-Dec-05 15:24 305 3 gusting 13 13.3
2019-Dec-05 15:19 017 5 gusting 13 13.3
2019-Dec-05 15:14 336 6 gusting 18 13.3
2019-Dec-05 15:09 350 6 gusting 18 13.3
2019-Dec-05 15:04 036 5 gusting 16 13.3
2019-Dec-05 14:59 001 3 gusting 16 13.3
2019-Dec-05 14:54 312 3 gusting 13 13.3
2019-Dec-05 14:49 326 3 gusting 13 12.8
2019-Dec-05 14:44 313 5 gusting 14 12.8
2019-Dec-05 14:39 310 3 gusting 14 12.2
2019-Dec-05 14:34 309 3 gusting 14 11.7
2019-Dec-05 14:29 334 5 gusting 14 11.7
2019-Dec-05 14:24 032 5 gusting 14 11.7
2019-Dec-05 14:19 351 3 gusting 14 11.1
2019-Dec-05 14:14 278 3 gusting 11 11.1
2019-Dec-05 14:09 232 3 gusting 14 10.6
2019-Dec-05 14:04 314 3 gusting 14 10.6
2019-Dec-05 13:59 296 5 gusting 18 10.6
2019-Dec-05 13:54 332 3 gusting 18 10.6
2019-Dec-05 13:49 298 2 gusting 10 10.6
2019-Dec-05 13:44 283 2 gusting 10 10.0
2019-Dec-05 13:39 333 2 gusting 10 10.0
2019-Dec-05 13:34 304 2 gusting 10 9.4
2019-Dec-05 13:29 353 2 gusting 11 9.4
2019-Dec-05 13:24 036 2 gusting 11 9.4
2019-Dec-05 13:19 346 3 gusting 14 9.4
2019-Dec-05 13:14 003 3 gusting 14 8.9
2019-Dec-05 13:09 284 3 gusting 13 8.9
2019-Dec-05 13:04 321 3 gusting 18 8.9
2019-Dec-05 12:59 342 3 gusting 18 8.9
2019-Dec-05 12:54 311 3 gusting 14 8.9
2019-Dec-05 12:49 284 3 gusting 14 8.3
2019-Dec-05 12:44 8.3
2019-Dec-05 12:39 356 3 gusting 13 8.3
2019-Dec-05 12:34 291 2 gusting 13 7.8
2019-Dec-05 12:29 244 2 gusting 10 7.8
2019-Dec-05 12:24 357 3 gusting 10 7.8
2019-Dec-05 12:19 334 3 gusting 9 7.8
2019-Dec-05 12:14 304 3 gusting 9 7.2
2019-Dec-05 12:09 302 0 gusting 11 7.2
2019-Dec-05 12:04 348 6.7
2019-Dec-05 11:59 305 6.7
2019-Dec-05 11:54 308 2 gusting 10 6.7
2019-Dec-05 11:49 299 2 gusting 10 6.1
2019-Dec-05 11:44 330 2 gusting 7 6.1
2019-Dec-05 11:39 338 0 gusting 7 6.1
2019-Dec-05 11:34 287 2 gusting 9 6.1
2019-Dec-05 11:29 007 0 gusting 9 5.6
2019-Dec-05 11:24 286 5.6
2019-Dec-05 11:19 282 5.6
2019-Dec-05 11:14 276 5.6
2019-Dec-05 11:09 276 5.6
2019-Dec-05 11:04 283 5.6
2019-Dec-05 10:59 283 5.6
2019-Dec-05 10:54 321 5.6
2019-Dec-05 10:49 277 6.1
2019-Dec-05 10:44 263 6.1
2019-Dec-05 10:39 258 6.1
2019-Dec-05 10:34 263 6.1
2019-Dec-05 10:29 278 6.1
2019-Dec-05 10:24 282 6.1
2019-Dec-05 10:19 279 6.1
2019-Dec-05 10:14 275 0 gusting 5 6.7
2019-Dec-05 10:08 272 0 gusting 3 6.7
2019-Dec-05 10:03 273 0 gusting 6 6.7
2019-Dec-05 09:58 265 0 gusting 7 6.7
2019-Dec-05 09:53 309 0 gusting 7 6.7
2019-Dec-05 09:48 279 0 gusting 7 6.7
2019-Dec-05 09:43 286 0 gusting 7 6.7
2019-Dec-05 09:38 288 0 gusting 5 6.7
2019-Dec-05 09:33 286 0 gusting 5 6.7
2019-Dec-05 09:28 251 6.7
2019-Dec-05 09:23 288 6.7
2019-Dec-05 09:18 292 6.7
2019-Dec-05 09:13 277 0 gusting 5 6.7
2019-Dec-05 09:08 298 0 gusting 5 6.7
2019-Dec-05 09:03 278 0 gusting 6 6.7
2019-Dec-05 08:58 313 0 gusting 6 6.7
2019-Dec-05 08:53 280 0 gusting 10 6.7
2019-Dec-05 08:48 286 0 gusting 10 6.7
2019-Dec-05 08:43 301 0 gusting 9 6.7
2019-Dec-05 08:38 282 0 gusting 9 6.7
2019-Dec-05 08:33 270 0 gusting 9 7.2
2019-Dec-05 08:28 285 0 gusting 3 7.2
2019-Dec-05 08:23 286 0 gusting 3 7.2
2019-Dec-05 08:18 281 0 gusting 6 7.2
2019-Dec-05 08:13 165 0 gusting 6 7.2
2019-Dec-05 08:08 282 7.2
2019-Dec-05 08:03 315 7.2
2019-Dec-05 07:58 144 7.2
2019-Dec-05 07:53 271 7.2
2019-Dec-05 07:48 244 7.2
2019-Dec-05 07:43 271 7.2
2019-Dec-05 07:38 292 7.2
2019-Dec-05 07:33 225 7.2
2019-Dec-05 07:28 278 7.2
2019-Dec-05 07:23 286 7.2
2019-Dec-05 07:18 280 7.2
2019-Dec-05 07:13 270 7.2
2019-Dec-05 07:08 252 7.8
2019-Dec-05 07:03 253 7.8
2019-Dec-05 06:58 286 7.8
2019-Dec-05 06:53 315 7.8
2019-Dec-05 06:48 228 7.8
2019-Dec-05 06:43 138 7.8
2019-Dec-05 06:38 294 7.8
2019-Dec-05 06:33 296 7.8
2019-Dec-05 06:28 319 7.8
2019-Dec-05 06:23 286 7.8
2019-Dec-05 06:18 294 7.8
2019-Dec-05 06:13 289 7.8
2019-Dec-05 06:08 294 7.8
2019-Dec-05 06:03 294 0 gusting 6 8.3
2019-Dec-05 05:58 306 0 gusting 6 8.3
2019-Dec-05 05:53 342 8.3
2019-Dec-05 05:48 298 0 gusting 10 8.3
2019-Dec-05 05:43 314 0 gusting 10 8.3
2019-Dec-05 05:38 294 0 gusting 5 8.3
2019-Dec-05 05:33 328 0 gusting 7 8.9
2019-Dec-05 05:28 284 0 gusting 7 8.9
2019-Dec-05 05:23 290 0 gusting 7 8.9
2019-Dec-05 05:18 284 0 gusting 14 8.9
2019-Dec-05 05:13 276 0 gusting 14 9.4
2019-Dec-05 05:08 287 0 gusting 6 9.4
2019-Dec-05 05:03 026 2 gusting 11 9.4
2019-Dec-05 04:58 283 2 gusting 11 9.4
2019-Dec-05 04:53 298 0 gusting 10 9.4
2019-Dec-05 04:48 238 0 gusting 6 10.0
2019-Dec-05 04:43 237 2 gusting 10 10.0
2019-Dec-05 04:38 294 2 gusting 10 10.0
2019-Dec-05 04:33 292 0 gusting 7 10.0
2019-Dec-05 04:28 298 2 gusting 7 10.0
2019-Dec-05 04:23 140 2 gusting 9 10.6
2019-Dec-05 04:18 022 0 gusting 9 10.6
2019-Dec-05 04:13 136 0 gusting 6 10.6
2019-Dec-05 04:08 292 2 gusting 7 10.6
2019-Dec-05 04:03 290 2 gusting 7 10.6
2019-Dec-05 03:58 302 2 gusting 6 10.6
2019-Dec-05 03:53 255 2 gusting 9 10.6
2019-Dec-05 03:48 132 2 gusting 10 10.6
2019-Dec-05 03:43 023 0 gusting 10 10.6
2019-Dec-05 03:38 193 10.6
2019-Dec-05 03:33 305 10.0
2019-Dec-05 03:28 171 10.0
2019-Dec-05 03:23 213 10.0
2019-Dec-05 03:18 206 10.0
2019-Dec-05 03:13 169 9.4
2019-Dec-05 03:08 175 9.4
2019-Dec-05 03:02 207 9.4
2019-Dec-05 02:57 228 9.4
2019-Dec-05 02:52 267 8.9
2019-Dec-05 02:47 230 8.9
2019-Dec-05 02:42 125 8.9
2019-Dec-05 02:37 248 8.9
2019-Dec-05 02:32 186 8.3
2019-Dec-05 02:27 288 8.3
2019-Dec-05 02:22 304 8.3
2019-Dec-05 02:17 225 8.3
2019-Dec-05 02:12 296 8.3
2019-Dec-05 02:07 178 8.3
2019-Dec-05 02:02 238 8.3
2019-Dec-05 01:57 252 8.3
2019-Dec-05 01:52 252 8.9
2019-Dec-05 01:47 252 8.9
2019-Dec-05 01:42 252 8.9
2019-Dec-05 01:37 252 8.9
2019-Dec-05 01:32 252 8.9
2019-Dec-05 01:27 252 8.9
2019-Dec-05 01:22 250 8.9
2019-Dec-05 01:17 249 8.9
2019-Dec-05 01:12 243 8.9
2019-Dec-05 01:07 258 8.9
2019-Dec-05 01:02 249 8.9
2019-Dec-05 00:57 277 8.9
2019-Dec-05 00:52 278 8.9
2019-Dec-05 00:47 248 8.9
2019-Dec-05 00:42 221 8.9
2019-Dec-05 00:37 262 8.9
2019-Dec-05 00:32 255 8.9
2019-Dec-05 00:27 151 8.9
2019-Dec-05 00:22 250 8.9
2019-Dec-05 00:17 250 8.9
2019-Dec-05 00:12 249 8.9
2019-Dec-05 00:07 249 8.9
2019-Dec-05 00:02 249 8.9
2019-Dec-04 23:57 248 9.4
2019-Dec-04 23:52 248 9.4
2019-Dec-04 23:47 244 9.4
2019-Dec-04 23:42 244 9.4
2019-Dec-04 23:37 244 10.0
2019-Dec-04 23:32 244 10.0
2019-Dec-04 23:27 245 10.6
2019-Dec-04 23:22 245 10.6
2019-Dec-04 23:17 245 10.6
2019-Dec-04 23:12 245 10.6
2019-Dec-04 23:07 255 10.6
2019-Dec-04 23:02 255 10.6
2019-Dec-04 22:57 252 11.1
2019-Dec-04 22:52 290 11.1
2019-Dec-04 22:47 290 11.7
2019-Dec-04 22:42 297 11.7
2019-Dec-04 22:37 301 11.7
2019-Dec-04 22:32 222 0 gusting 5 11.7
2019-Dec-04 22:27 303 11.7
2019-Dec-04 22:22 292 12.2
2019-Dec-04 22:17 275 12.2
2019-Dec-04 22:12 235 12.2
2019-Dec-04 22:07 011 12.8
2019-Dec-04 22:02 290 12.8
2019-Dec-04 21:57 290 12.8
2019-Dec-04 21:52 242 12.8
2019-Dec-04 21:47 273 13.3
2019-Dec-04 21:42 286 13.3
2019-Dec-04 21:37 286 13.3
2019-Dec-04 21:32 286 13.3
2019-Dec-04 21:27 188 0 gusting 7 13.9
2019-Dec-04 21:22 305 0 gusting 7 13.9
2019-Dec-04 21:17 307 0 gusting 11 13.9
2019-Dec-04 21:12 255 2 gusting 11 13.9
2019-Dec-04 21:07 309 2 gusting 16 13.9
2019-Dec-04 21:02 280 0 gusting 16 14.4
2019-Dec-04 20:57 115 0 gusting 5 14.4
2019-Dec-04 20:52 274 0 gusting 5 14.4
2019-Dec-04 20:47 290 0 gusting 5 15.0
2019-Dec-04 20:42 290 0 gusting 9 15.0
2019-Dec-04 20:37 132 0 gusting 9 15.0
2019-Dec-04 20:32 230 2 gusting 10 15.0
2019-Dec-04 20:27 286 2 gusting 10 15.0
2019-Dec-04 20:22 339 0 gusting 7 15.6
2019-Dec-04 20:17 205 0 gusting 7 15.6
2019-Dec-04 20:12 306 0 gusting 5 15.6
2019-Dec-04 20:07 306 0 gusting 5 15.6
2019-Dec-04 20:02 350 0 gusting 6 15.6
2019-Dec-04 19:57 284 0 gusting 6 15.6
2019-Dec-04 19:52 145 0 gusting 5 15.6
2019-Dec-04 19:47 099 0 gusting 5 15.6
2019-Dec-04 19:42 182 0 gusting 10 15.6
2019-Dec-04 19:37 009 0 gusting 10 16.1
2019-Dec-04 19:32 308 0 gusting 7 16.1
2019-Dec-04 19:27 280 0 gusting 7 16.1
2019-Dec-04 19:22 011 0 gusting 6 15.6
2019-Dec-04 19:17 192 2 gusting 10 15.6
2019-Dec-04 19:12 285 2 gusting 13 15.6
2019-Dec-04 19:07 325 0 gusting 13 15.6
2019-Dec-04 19:02 301 0 gusting 7 15.6
2019-Dec-04 18:57 313 2 gusting 9 15.6
2019-Dec-04 18:52 305 2 gusting 14 15.6
2019-Dec-04 18:47 344 0 gusting 14 15.6
2019-Dec-04 18:42 028 0 gusting 6 15.6
2019-Dec-04 18:37 063 0 gusting 2 15.6
2019-Dec-04 18:32 147 0 gusting 7 15.6
2019-Dec-04 18:27 299 0 gusting 7 15.6
2019-Dec-04 18:22 022 0 gusting 10 15.6
2019-Dec-04 18:17 316 0 gusting 10 15.6
2019-Dec-04 18:12 201 0 gusting 6 15.0
2019-Dec-04 18:07 309 0 gusting 6 15.0
2019-Dec-04 18:02 285 0 gusting 5 15.0
2019-Dec-04 17:57 314 2 gusting 11 15.0
2019-Dec-04 17:52 311 2 gusting 11 15.0
2019-Dec-04 17:47 285 0 gusting 9 15.0
2019-Dec-04 17:42 279 0 gusting 5 14.4
2019-Dec-04 17:37 246 2 gusting 10 15.0
2019-Dec-04 17:32 351 0 gusting 10 13.9
2019-Dec-04 17:27 260 2 gusting 9 14.4
2019-Dec-04 17:22 340 2 gusting 9 13.9
2019-Dec-04 17:17 317 2 gusting 9 14.4
2019-Dec-04 17:12 342 2 gusting 7 13.9
2019-Dec-04 17:07 339 2 gusting 6 13.9
2019-Dec-04 17:02 292 0 gusting 7 13.9
2019-Dec-04 16:57 009 0 gusting 7 13.9
2019-Dec-04 16:52 309 2 gusting 11 13.9
2019-Dec-04 16:47 334 2 gusting 11 13.9
2019-Dec-04 16:42 292 2 gusting 9 13.3
2019-Dec-04 16:37 356 0 gusting 9 13.3
2019-Dec-04 16:32 190 2 gusting 7 13.3
2019-Dec-04 16:27 273 2 gusting 10 12.8
2019-Dec-04 16:22 304 2 gusting 10 12.8
2019-Dec-04 16:17 325 2 gusting 9 12.8
2019-Dec-04 16:12 327 3 gusting 9 12.2
2019-Dec-04 16:07 328 2 gusting 9 11.7
2019-Dec-04 16:02 348 2 gusting 6 11.7
2019-Dec-04 15:57 274 2 gusting 10 11.7
2019-Dec-04 15:52 262 3 gusting 10 11.1
2019-Dec-04 15:47 001 2 gusting 10 11.1
2019-Dec-04 15:42 076 2 gusting 13 10.6
2019-Dec-04 15:37 331 2 gusting 13 10.6
2019-Dec-04 15:32 269 0 gusting 13 10.6
2019-Dec-04 15:27 012 0 gusting 10 10.6
2019-Dec-04 15:22 272 2 gusting 11 10.0
2019-Dec-04 15:17 257 3 gusting 11 9.4
2019-Dec-04 15:12 338 3 gusting 11 9.4
2019-Dec-04 15:07 260 2 gusting 10 9.4
2019-Dec-04 15:02 335 0 gusting 9 9.4
2019-Dec-04 14:57 340 0 gusting 7 8.9
2019-Dec-04 14:52 280 0 gusting 6 8.9
2019-Dec-04 14:47 321 2 gusting 7 8.3
2019-Dec-04 14:42 8.3
2019-Dec-04 14:37 347 2 gusting 10 8.3
2019-Dec-04 14:32 305 2 gusting 10 7.8
2019-Dec-04 14:27 095 2 gusting 10 7.8
2019-Dec-04 14:22 278 2 gusting 13 7.2
2019-Dec-04 14:17 327 2 gusting 13 7.2
2019-Dec-04 14:12 260 3 gusting 14 6.7
2019-Dec-04 14:07 291 3 gusting 14 6.7
2019-Dec-04 14:02 323 2 gusting 10 6.1
2019-Dec-04 13:57 292 2 gusting 15 6.1
2019-Dec-04 13:52 291 2 gusting 15 5.6
2019-Dec-04 13:47 321 0 gusting 5 5.6
2019-Dec-04 13:42 300 2 gusting 10 5.0
2019-Dec-04 13:37 340 0 gusting 10 4.4
2019-Dec-04 13:32 228 0 gusting 6 4.4
2019-Dec-04 13:27 327 2 gusting 11 4.4
2019-Dec-04 13:22 277 2 gusting 11 3.9
2019-Dec-04 13:17 267 2 gusting 10 3.9
2019-Dec-04 13:12 269 2 gusting 10 3.9
2019-Dec-04 13:07 290 3.9
2019-Dec-04 13:02 319 3.3
2019-Dec-04 12:57 284 3.3
2019-Dec-04 12:52 306 3.3
2019-Dec-04 12:47 321 3.3
2019-Dec-04 12:42 179 3.3
2019-Dec-04 12:37 269 3.3
2019-Dec-04 12:32 274 3.3
2019-Dec-04 12:27 285 3.3
2019-Dec-04 12:22 284 3.3
2019-Dec-04 12:17 294 3.3
2019-Dec-04 12:12 280 3.3
2019-Dec-04 12:07 280 3.3
2019-Dec-04 12:02 262 3.3
2019-Dec-04 11:57 262 3.3
2019-Dec-04 11:52 262 3.3
2019-Dec-04 11:47 293 3.3
2019-Dec-04 11:42 286 3.3
2019-Dec-04 11:37 284 3.3
2019-Dec-04 11:32 296 3.3
2019-Dec-04 11:26 284 3.3
2019-Dec-04 11:21 299 3.3
2019-Dec-04 11:16 278 3.3
2019-Dec-04 11:11 022 3.3
2019-Dec-04 11:07 289 3.3
2019-Dec-04 11:01 302 3.3
2019-Dec-04 10:56 280 3.3
2019-Dec-04 10:51 296 3.3
2019-Dec-04 10:46 289 3.3
2019-Dec-04 10:41 275 3.3
2019-Dec-04 10:36 273 3.3
2019-Dec-04 10:31 273 3.3
2019-Dec-04 10:26 273 3.3
2019-Dec-04 10:21 273 3.3
2019-Dec-04 10:16 271 3.3
2019-Dec-04 10:11 268 3.3
2019-Dec-04 10:06 297 3.3
2019-Dec-04 10:01 301 3.3
2019-Dec-04 09:56 301 3.3
2019-Dec-04 09:51 301 3.3
2019-Dec-04 09:46 301 3.3
2019-Dec-04 09:41 301 3.9
2019-Dec-04 09:36 300 3.9
2019-Dec-04 09:31 290 3.9
2019-Dec-04 09:26 290 3.9
2019-Dec-04 09:21 289 3.9
2019-Dec-04 09:16 286 3.9
2019-Dec-04 09:11 286 3.9
2019-Dec-04 09:06 286 3.9
2019-Dec-04 09:01 287 3.9
2019-Dec-04 08:56 287 3.9
2019-Dec-04 08:51 263 3.9
2019-Dec-04 08:46 263 3.9
2019-Dec-04 08:41 263 3.9
2019-Dec-04 08:36 264 3.9
2019-Dec-04 08:31 264 3.9
2019-Dec-04 08:26 264 3.9
2019-Dec-04 08:21 264 4.4
2019-Dec-04 08:16 264 4.4
2019-Dec-04 08:11 264 4.4
2019-Dec-04 08:06 309 4.4
2019-Dec-04 08:01 262 4.4
2019-Dec-04 07:56 262 4.4
2019-Dec-04 07:51 288 4.4
2019-Dec-04 07:46 288 4.4
2019-Dec-04 07:41 288 4.4
2019-Dec-04 07:36 294 4.4
2019-Dec-04 07:31 294 4.4
2019-Dec-04 07:26 294 4.4
2019-Dec-04 07:21 294 0 gusting 5 5.0
2019-Dec-04 07:16 292 5.0
2019-Dec-04 07:11 251 5.0
2019-Dec-04 07:06 290 5.0
2019-Dec-04 07:01 280 5.0
2019-Dec-04 06:56 280 5.0
2019-Dec-04 06:51 300 5.0
2019-Dec-04 06:46 300 5.0
2019-Dec-04 06:41 257 5.0
2019-Dec-04 06:36 257 5.0
2019-Dec-04 06:31 255 5.6
2019-Dec-04 06:26 288 5.6
2019-Dec-04 06:21 288 5.6
2019-Dec-04 06:16 263 5.6
2019-Dec-04 06:11 260 5.6
2019-Dec-04 06:06 261 0 gusting 2 5.6
2019-Dec-04 06:01 252 5.6
2019-Dec-04 05:56 235 5.6
2019-Dec-04 05:51 226 5.6
2019-Dec-04 05:46 219 5.6
2019-Dec-04 05:41 298 5.6
2019-Dec-04 05:36 298 5.6
2019-Dec-04 05:31 292 5.6
2019-Dec-04 05:26 290 5.6
2019-Dec-04 05:21 290 5.6
2019-Dec-04 05:16 290 6.1
2019-Dec-04 05:11 282 6.1
2019-Dec-04 05:06 282 6.1
2019-Dec-04 05:01 282 6.1
2019-Dec-04 04:56 282 6.1
2019-Dec-04 04:51 282 6.1
2019-Dec-04 04:46 282 6.1
2019-Dec-04 04:41 299 6.1
2019-Dec-04 04:36 300 6.1
2019-Dec-04 04:31 300 6.1
2019-Dec-04 04:26 299 6.1
2019-Dec-04 04:21 299 6.1
2019-Dec-04 04:16 299 6.1
2019-Dec-04 04:11 255 6.1
2019-Dec-04 04:06 229 6.1
2019-Dec-04 04:01 307 6.1
2019-Dec-04 03:56 151 6.1
2019-Dec-04 03:51 151 6.1
2019-Dec-04 03:46 244 6.1
2019-Dec-04 03:41 244 6.1
2019-Dec-04 03:36 244 6.1
2019-Dec-04 03:31 283 6.1
2019-Dec-04 03:26 283 6.1
2019-Dec-04 03:21 298 6.1
2019-Dec-04 03:16 298 6.1
2019-Dec-04 03:11 298 6.1
2019-Dec-04 03:06 298 6.1
2019-Dec-04 03:01 298 6.1
2019-Dec-04 02:55 298 6.1
2019-Dec-04 02:50 298 6.1
2019-Dec-04 02:45 298 6.1
2019-Dec-04 02:40 298 6.1
2019-Dec-04 02:35 298 6.1
2019-Dec-04 02:30 298 6.7
2019-Dec-04 02:25 298 6.7
2019-Dec-04 02:20 298 6.7
2019-Dec-04 02:15 298 6.7
2019-Dec-04 02:10 298 6.7
2019-Dec-04 02:05 298 6.7
2019-Dec-04 02:00 298 6.7
2019-Dec-04 01:55 298 6.7
2019-Dec-04 01:50 298 6.7
2019-Dec-04 01:45 298 6.7
2019-Dec-04 01:40 298 6.7
2019-Dec-04 01:35 298 6.7
2019-Dec-04 01:30 298 6.7
2019-Dec-04 01:25 298 7.2
2019-Dec-04 01:20 298 7.2
2019-Dec-04 01:15 298 7.2
2019-Dec-04 01:10 298 7.2
2019-Dec-04 01:05 298 7.2
2019-Dec-04 01:00 298 7.2
2019-Dec-04 00:55 298 7.2
2019-Dec-04 00:50 298 7.2
2019-Dec-04 00:45 298 7.2
2019-Dec-04 00:40 298 7.2
2019-Dec-04 00:35 298 7.2
2019-Dec-04 00:30 298 7.2
2019-Dec-04 00:25 298 7.8
2019-Dec-04 00:20 298 7.8
2019-Dec-04 00:15 298 7.8
2019-Dec-04 00:10 298 7.8
2019-Dec-04 00:05 298 7.8
2019-Dec-04 00:00 298 7.8
2019-Dec-03 23:55 298 7.8
2019-Dec-03 23:50 298 7.8
2019-Dec-03 23:45 298 7.8
2019-Dec-03 23:40 298 7.8
2019-Dec-03 23:35 298 7.8
2019-Dec-03 23:30 298 7.8
2019-Dec-03 23:25 298 7.8
2019-Dec-03 23:20 298 7.8
2019-Dec-03 23:15 298 8.3
2019-Dec-03 23:10 298 8.3
2019-Dec-03 23:00 298 8.3
2019-Dec-03 22:55 298 8.3
2019-Dec-03 22:50 298 8.3
2019-Dec-03 22:45 298 8.9
2019-Dec-03 22:40 298 8.9
2019-Dec-03 22:35 298 8.9
2019-Dec-03 22:30 298 9.4
2019-Dec-03 22:25 298 9.4
2019-Dec-03 22:20 298 9.4
2019-Dec-03 22:15 298 9.4
2019-Dec-03 22:10 298 10.0
2019-Dec-03 22:05 298 10.0
2019-Dec-03 22:00 298 10.0
2019-Dec-03 21:55 298 10.0
2019-Dec-03 21:50 298 10.6
2019-Dec-03 21:45 298 10.6
2019-Dec-03 21:40 298 10.6
2019-Dec-03 21:35 296 10.6
2019-Dec-03 21:30 296 0 gusting 6 10.6
2019-Dec-03 21:25 307 0 gusting 6 10.6
2019-Dec-03 21:20 088 10.6
2019-Dec-03 21:15 130 0 gusting 3 10.6
2019-Dec-03 21:10 130 0 gusting 3 10.6
2019-Dec-03 21:05 230 0 gusting 5 11.1
2019-Dec-03 21:00 003 0 gusting 10 11.1